Flag Weather past 2 weeks in Redmond, Washington, U.S.A.

Now
48 °F

Broken clouds.


Feels Like: 46 °F
Forecast: 44 / 50 °F
Wind: 5 mph from Southeast

Location: Seattle Boeing Field

Current Time: Nov 22, 2014 at 8:50:41 AM

Latest Report: Nov 22, 2014 at 7:53 AM


Visibility: 10 mi

Pressure: 29.70 "Hg

Humidity: 77%

Dew point: 41 °F

Location of RedmondLocation

Historic Weather in Redmond — Graph

°F

Redmond temperature yesterday

Maximum temperature yesterday: 55 °F (at 7:53 PM)
Minimum temperature yesterday: 50 °F (at 12:53 AM)
Average temperature yesterday: 51 °F

Past Weeks' High & Low Weather Summary

 TemperatureHumidityPressure
High59 °F (Nov 7, 1:53 PM)90% (Nov 8, 5:53 AM)30.54 "Hg (Nov 8, 5:53 AM)
Low27 °F (Nov 15, 6:53 AM)16% (Nov 12, 1:53 PM)29.31 "Hg (Nov 21, 5:53 PM)
Average44 °F60%30.13 "Hg
* Reported Nov 7 7:53 AM — Nov 22 7:53 AM, Redmond, Weather by CustomWeather, © 2014

Note: Actual official high and low records may vary slightly from our data, if they occured in-between our weather recording intervals... More about our weather records

Advertising

Redmond weather history for previous 24 hours

 ConditionsComfort  
Time TempWeatherWind HumidityBarometerVisibility
7:53 AM
Nov 22
48 °FBroken clouds.5 mph77%29.70 "Hg10 mi
6:53 AM50 °FPartly cloudy.9 mph68%29.68 "Hg10 mi
5:53 AM49 °FMostly cloudy.9 mph71%29.68 "Hg10 mi
4:53 AM48 °FPassing clouds.10 mph74%29.66 "Hg10 mi
3:53 AM46 °FClear.9 mph79%29.65 "Hg10 mi
2:53 AM48 °FPassing clouds.6 mph74%29.63 "Hg10 mi
1:53 AM49 °FPassing clouds.5 mph71%29.59 "Hg10 mi
12:53 AM51 °FPassing clouds.8 mph66%29.55 "Hg10 mi
11:53 PM
Nov 21
52 °FPassing clouds.9 mph69%29.50 "Hg10 mi
10:53 PM52 °FClear.13 mph66%29.46 "Hg10 mi
9:53 PM53 °FPassing clouds.15 mph69%29.41 "Hg10 mi
8:53 PM53 °FPassing clouds.18 mph77%29.38 "Hg10 mi
7:53 PM55 °FOvercast.16 mph77%29.36 "Hg10 mi
6:59 PM52 °FLight rain. Fog.8 mph82%29.33 "Hg6 mi
5:53 PM50 °FLight rain. Mostly cloudy.8 mph83%29.31 "Hg9 mi
4:53 PM50 °FLight rain. Mostly cloudy.8 mph83%29.33 "Hg4 mi
3:53 PM50 °FLight rain. More clouds than sun.6 mph83%29.37 "Hg4 mi
2:53 PM50 °FLight rain. Overcast.7 mph83%29.41 "Hg5 mi
1:53 PM51 °FLight rain. Overcast.7 mph80%29.49 "Hg6 mi
12:53 PM53 °FLight rain. Overcast.10 mph77%29.56 "Hg6 mi
11:53 AM53 °FLight rain. Mostly cloudy.6 mph77%29.62 "Hg5 mi
10:53 AM52 °FLight rain. Cloudy.7 mph80%29.66 "Hg6 mi
9:53 AM52 °FMostly cloudy.8 mph77%29.69 "Hg10 mi
8:53 AM50 °FMostly cloudy.8 mph80%29.72 "Hg10 mi
Weather by CustomWeather, © 2014

See weather overviewHow to use our weather pages